This is the latest recevied weather packets stored in our database for station/object KB3UMW-13. If no packets are shown the sender has not sent any weather packets the latest 10 day(s).
| Time | Temp. | Humidity | Pressure | Rain* | Wind** | Luminosity | Snow |
|---|---|---|---|---|---|---|---|
| 1777982219 | 15° C | 69% | 1012.7 hPa | 0 mm | - | 85 W/m² | - |
| 1777981917 | 15° C | 69% | 1012.8 hPa | 0 mm | - | 73 W/m² | - |
| 1777981614 | 14.44° C | 69% | 1012.7 hPa | 0 mm | - | 50 W/m² | - |
| 1777981310 | 15° C | 68% | 1012.7 hPa | 0 mm | - | 56 W/m² | - |
| 1777981006 | 14.44° C | 69% | 1013 hPa | 0 mm | - | 50 W/m² | - |
| 1777980703 | 14.44° C | 69% | 1012.7 hPa | 0 mm | - | 49 W/m² | - |
| 1777980400 | 14.44° C | 70% | 1012.8 hPa | 0 mm | - | 41 W/m² | - |
| 1777980098 | 13.89° C | 71% | 1012.9 hPa | 0 mm | - | 36 W/m² | - |
| 1777979797 | 13.89° C | 72% | 1012.7 hPa | 0 mm | - | 34 W/m² | - |
| 1777979493 | 13.89° C | 72% | 1012.9 hPa | 0 mm | - | 33 W/m² | - |
| 1777979189 | 13.89° C | 70% | 1012.8 hPa | 0 mm | - | 30 W/m² | - |
| 1777978887 | 13.89° C | 72% | 1012.7 hPa | 0 mm | - | 25 W/m² | - |
| 1777978583 | 13.89° C | 70% | 1012.7 hPa | 0 mm | - | 19 W/m² | - |
| 1777978279 | 13.89° C | 70% | 1012.6 hPa | 0 mm | - | 15 W/m² | - |
| 1777977976 | 13.89° C | 70% | 1012.6 hPa | 0 mm | - | 14 W/m² | - |
| 1777977674 | 13.89° C | 71% | 1012.5 hPa | 0 mm | - | 11 W/m² | - |
| 1777977370 | 13.89° C | 69% | 1012.5 hPa | 0 mm | - | 8 W/m² | - |
| 1777977068 | 13.89° C | 70% | 1012.4 hPa | 0 mm | - | 6 W/m² | - |
| 1777976765 | 13.89° C | 71% | 1012.4 hPa | 0 mm | - | 5 W/m² | - |
| 1777976462 | 13.33° C | 71% | 1012.4 hPa | 0 mm | - | 4 W/m² | - |
| 1777976161 | 13.89° C | 71% | 1012 hPa | 0 mm | - | 2 W/m² | - |
| 1777975857 | 13.89° C | 69% | 1012 hPa | 0 mm | - | 1 W/m² | - |
| 1777975553 | 13.89° C | 71% | 1011.9 hPa | 0 mm | - | 1 W/m² | - |
| 1777975250 | 13.33° C | 71% | 1011.9 hPa | 0 mm | - | 0 W/m² | - |
| 1777974947 | 13.89° C | 71% | 1012 hPa | 0 mm | - | 0 W/m² | - |
* Rain latest hour (hover to see other rain measurements)
** Current wind speed in m/s (hover to see current wind gust speed)